N5SRF Weather Reports


Display with metric or nautical units.
time (UTC)temp
F
wind
direction
speed
MPH
gust
MPH
rain 1hr
in
rain 24hr
in
rain mn
in
humidity
%
barometer
mb
20260504050317 63 186 1.0 2.0 0.00 0.00 0.00 74 1022.1
20260504045814 63 187 1.0 2.0 0.00 0.00 0.00 73 1022.0
20260504045314 63 194 1.0 1.0 0.00 0.00 0.00 74 1022.1
20260504044812 63 186 1.0 1.0 0.00 0.00 0.00 74 1022.2
20260504044309 63 170 1.0 1.0 0.00 0.00 0.00 73 1022.2
20260504043806 63 184 0.0 0.0 0.00 0.00 0.00 73 1022.2
20260504043303 63 186 3.0 3.0 0.00 0.00 0.00 73 1022.3
20260504042801 64 211 1.0 1.0 0.00 0.00 0.00 72 1022.2
20260504042257 64 162 1.0 1.0 0.00 0.00 0.00 72 1022.2
20260504041753 64 289 3.0 5.0 0.00 0.00 0.00 73 1022.1
20260504041249 64 167 1.0 1.0 0.00 0.00 0.00 72 1022.1
20260504040745 64 169 0.0 1.0 0.00 0.00 0.00 72 1022.2
20260504040243 64 189 0.0 1.0 0.00 0.00 0.00 73 1022.3
20260504035739 64 200 1.0 1.0 0.00 0.00 0.00 73 1022.3
20260504035237 64 158 1.0 1.0 0.00 0.00 0.00 73 1022.3
20260504034734 64 204 1.0 2.0 0.00 0.00 0.00 72 1022.4
20260504034231 64 220 2.0 3.0 0.00 0.00 0.00 71 1022.3
20260504033729 64 201 2.0 2.0 0.00 0.00 0.00 71 1022.1
20260504033226 64 177 3.0 3.0 0.00 0.00 0.00 71 1022.2
20260504032723 64 179 1.0 2.0 0.00 0.00 0.00 71 1022.1
20260504032221 64 188 0.0 0.0 0.00 0.00 0.00 70 1022.3
20260504031716 64 194 3.0 3.0 0.00 0.00 0.00 71 1022.3
20260504031214 64 190 2.0 2.0 0.00 0.00 0.00 71 1022.3
20260504030710 64 193 3.0 3.0 0.00 0.00 0.00 70 1021.9
20260504030207 64 191 1.0 1.0 0.00 0.00 0.00 71 1021.9
20260504025703 64 173 1.0 1.0 0.00 0.00 0.00 70 1021.9
20260504025200 64 164 2.0 2.0 0.00 0.00 0.00 70 1022.1
20260504024658 64 150 1.0 2.0 0.00 0.00 0.00 71 1021.9
20260504024154 64 172 1.0 2.0 0.00 0.00 0.00 72 1022.0
20260504023650 64 174 0.0 1.0 0.00 0.00 0.00 73 1022.3
20260504023147 64 178 0.0 0.0 0.00 0.00 0.00 73 1021.9
20260504022643 64 181 1.0 1.0 0.00 0.00 0.00 72 1021.9
20260504022139 65 179 0.0 0.0 0.00 0.00 0.00 71 1022.1
20260504021637 64 176 0.0 0.0 0.00 0.00 0.00 71 1021.9
20260504021133 64 164 0.0 0.0 0.00 0.00 0.00 72 1021.9
20260504020631 64 164 1.0 1.0 0.00 0.00 0.00 72 1021.7
20260504020126 64 164 0.0 0.0 0.00 0.00 0.00 72 1021.9
20260504015623 65 164 0.0 0.0 0.00 0.00 0.00 71 1021.5
20260504015120 65 164 0.0 1.0 0.00 0.00 0.00 71 1021.6
20260504014615 65 167 0.0 0.0 0.00 0.00 0.00 70 1021.8
20260504014113 66 167 0.0 0.0 0.00 0.00 0.00 69 1021.9
20260504013610 66 167 1.0 1.0 0.00 0.00 0.00 67 1021.6
20260504013107 67 166 0.0 0.0 0.00 0.00 0.00 66 1021.5
20260504012604 68 166 0.0 1.0 0.00 0.00 0.00 65 1021.5
20260504012102 68 159 0.0 2.0 0.00 0.00 0.00 65 1021.5
20260504011559 68 164 1.0 1.0 0.00 0.00 0.00 64 1021.5
20260504011055 68 220 1.0 2.0 0.00 0.00 0.00 64 1021.5
20260504010550 68 181 1.0 1.0 0.00 0.00 0.00 63 1021.7
20260504010047 68 159 2.0 2.0 0.00 0.00 0.00 65 1021.4
20260504005544 68 159 0.0 0.0 0.00 0.00 0.00 65 1021.4
20260504005041 69 159 0.0 0.0 0.00 0.00 0.00 64 1021.4
20260504004539 69 159 0.0 1.0 0.00 0.00 0.00 62 1021.4
20260504004036 70 159 0.0 0.0 0.00 0.00 0.00 61 1021.5
20260504003532 71 159 0.0 0.0 0.00 0.00 0.00 59 1021.4
20260504003029 71 159 0.0 0.0 0.00 0.00 0.00 58 1021.9
20260504002526 72 159 0.0 0.0 0.00 0.00 0.00 56 1021.7
20260504002023 72 159 0.0 1.0 0.00 0.00 0.00 57 1021.5
20260504001521 73 165 0.0 1.0 0.00 0.00 0.00 55 1021.6
20260504001017 73 165 0.0 1.0 0.00 0.00 0.00 53 1021.5
20260504000514 74 184 1.0 1.0 0.00 0.00 0.00 52 1021.7
20260504000011 74 184 3.0 3.0 0.00 0.00 0.00 52 1021.9
20260503235509 75 184 0.0 1.0 0.00 0.00 0.00 51 1021.8
20260503235006 75 171 1.0 1.0 0.00 0.00 0.00 50 1021.7
20260503234503 75 174 1.0 1.0 0.00 0.00 0.00 49 1021.7
20260503234002 75 161 4.0 5.0 0.00 0.00 0.00 49 1021.8
20260503233458 75 141 3.0 3.0 0.00 0.00 0.00 48 1021.7
20260503232954 76 123 2.0 3.0 0.00 0.00 0.00 48 1021.9
20260503232451 76 149 1.0 2.0 0.00 0.00 0.00 47 1021.6
20260503231944 77 220 4.0 5.0 0.00 0.00 0.00 46 1021.9
20260503231441 77 153 1.0 2.0 0.00 0.00 0.00 46 1021.7
20260503230937 78 97 3.0 5.0 0.00 0.00 0.00 46 1021.7
20260503230434 78 147 1.0 1.0 0.00 0.00 0.00 46 1022.0
20260503225932 78 129 2.0 2.0 0.00 0.00 0.00 45 1022.0
20260503225428 78 164 3.0 5.0 0.00 0.00 0.00 45 1021.9
20260503224924 78 180 1.0 1.0 0.00 0.00 0.00 47 1021.9
20260503224421 78 152 1.0 2.0 0.00 0.00 0.00 47 1022.1
20260503223919 78 122 0.0 1.0 0.00 0.00 0.00 46 1022.1
20260503223416 78 175 2.0 2.0 0.00 0.00 0.00 45 1022.2
20260503222911 78 143 1.0 2.0 0.00 0.00 0.00 46 1022.1
20260503222410 78 179 3.0 3.0 0.00 0.00 0.00 48 1022.2
20260503221908 79 203 2.0 3.0 0.00 0.00 0.00 43 1022.5
20260503221406 80 210 3.0 3.0 0.00 0.00 0.00 44 1022.2
20260503220902 79 100 1.0 2.0 0.00 0.00 0.00 43 1022.3
20260503220359 79 138 2.0 2.0 0.00 0.00 0.00 41 1022.3
20260503215856 79 165 2.0 2.0 0.00 0.00 0.00 42 1022.2
20260503215353 80 150 3.0 3.0 0.00 0.00 0.00 42 1022.5
20260503214850 80 82 1.0 2.0 0.00 0.00 0.00 42 1022.6
20260503214347 80 81 2.0 2.0 0.00 0.00 0.00 41 1022.5
20260503213845 81 89 5.0 6.0 0.00 0.00 0.00 38 1022.5
20260503213342 82 167 4.0 5.0 0.00 0.00 0.00 38 1022.7
20260503212839 81 209 0.0 1.0 0.00 0.00 0.00 40 1022.8
20260503212337 80 240 0.0 1.0 0.00 0.00 0.00 39 1022.8
20260503211834 80 86 2.0 3.0 0.00 0.00 0.00 42 1022.8
20260503211331 80 176 0.0 0.0 0.00 0.00 0.00 43 1022.9
20260503210826 80 148 1.0 2.0 0.00 0.00 0.00 41 1023.0
20260503210323 80 334 3.0 3.0 0.00 0.00 0.00 40 1023.1
20260503205818 80 29 3.0 3.0 0.00 0.00 0.00 40 1023.1
20260503205315 79 144 0.0 0.0 0.00 0.00 0.00 40 1023.3
20260503204811 79 87 5.0 7.0 0.00 0.00 0.00 40 1023.6
20260503204309 78 77 3.0 6.0 0.00 0.00 0.00 39 1023.5
20260503203806 76 94 3.0 3.0 0.00 0.00 0.00 41 1023.8
20260503203303 77 117 2.0 2.0 0.00 0.00 0.00 42 1023.7
20260503202800 77 181 1.0 1.0 0.00 0.00 0.00 39 1023.7
20260503202258 80 109 6.0 8.0 0.00 0.00 0.00 38 1023.9
20260503201756 79 168 1.0 1.0 0.00 0.00 0.00 37 1024.1
20260503201253 80 71 2.0 3.0 0.00 0.00 0.00 39 1024.0
20260503200750 80 99 1.0 2.0 0.00 0.00 0.00 39 1024.0
20260503200246 80 38 2.0 2.0 0.00 0.00 0.00 40 1024.2
20260503195743 80 120 2.0 2.0 0.00 0.00 0.00 40 1024.2
20260503195240 79 71 4.0 6.0 0.00 0.00 0.00 42 1024.3
20260503194738 80 96 3.0 3.0 0.00 0.00 0.00 40 1024.7
20260503194233 81 60 2.0 3.0 0.00 0.00 0.00 39 1024.6
20260503193729 82 339 3.0 3.0 0.00 0.00 0.00 38 1024.8
20260503193226 81 77 3.0 6.0 0.00 0.00 0.00 44 1024.7
20260503192721 82 246 1.0 1.0 0.00 0.00 0.00 40 1024.7
20260503192217 82 141 3.0 5.0 0.00 0.00 0.00 39 1024.8
20260503191714 81 165 1.0 2.0 0.00 0.00 0.00 39 1024.8
20260503191211 80 207 3.0 3.0 0.00 0.00 0.00 40 1024.9
20260503190708 81 198 2.0 2.0 0.00 0.00 0.00 39 1025.1
20260503190204 81 123 1.0 2.0 0.00 0.00 0.00 43 1024.8
20260503185702 81 164 4.0 5.0 0.00 0.00 0.00 43 1024.8
20260503185156 81 195 5.0 6.0 0.00 0.00 0.00 42 1025.0
20260503184652 82 163 4.0 5.0 0.00 0.00 0.00 36 1025.0
20260503184148 82 209 1.0 1.0 0.00 0.00 0.00 44 1025.3
20260503183644 80 197 0.0 0.0 0.00 0.00 0.00 41 1025.4
20260503183142 80 144 2.0 3.0 0.00 0.00 0.00 44 1025.4
20260503182640 80 187 1.0 1.0 0.00 0.00 0.00 43 1025.6
20260503182139 81 148 3.0 3.0 0.00 0.00 0.00 41 1025.6
20260503181629 80 140 1.0 1.0 0.00 0.00 0.00 44 1025.7
20260503181126 79 173 1.0 3.0 0.00 0.00 0.00 44 1025.7
20260503180623 78 146 4.0 5.0 0.00 0.00 0.00 40 1025.9
20260503180121 79 133 2.0 2.0 0.00 0.00 0.00 43 1025.8
20260503175617 79 73 3.0 5.0 0.00 0.00 0.00 42 1026.0
20260503175114 79 125 1.0 1.0 0.00 0.00 0.00 41 1026.1
20260503174611 78 66 1.0 2.0 0.00 0.00 0.00 44 1026.3
20260503174109 79 99 1.0 2.0 0.00 0.00 0.00 46 1026.4
20260503173603 79 143 5.0 6.0 0.00 0.00 0.00 43 1026.5
20260503173100 80 125 1.0 1.0 0.00 0.00 0.00 41 1026.5
20260503172557 80 197 1.0 1.0 0.00 0.00 0.00 40 1026.6
20260503172054 79 164 1.0 1.0 0.00 0.00 0.00 43 1026.7
20260503171550 79 149 3.0 5.0 0.00 0.00 0.00 42 1026.5
20260503171048 79 163 1.0 1.0 0.00 0.00 0.00 41 1026.7
20260503170544 80 178 3.0 5.0 0.00 0.00 0.00 41 1026.5
20260503150937 73 168 3.0 3.0 0.00 0.00 0.00 52 1026.8
20260503150433 74 133 3.0 5.0 0.00 0.00 0.00 53 1026.8
20260503131326 67 228 2.0 2.0 0.00 0.00 0.00 68 1026.4
20260503130824 65 228 0.0 0.0 0.00 0.00 0.00 77 1026.0
20260503130321 64 228 0.0 0.0 0.00 0.00 0.00 82 1026.1
20260503110709 51 231 1.0 1.0 0.00 0.00 0.00 99 1025.3
20260503110206 51 231 1.0 1.0 0.00 0.00 0.00 99 1025.0
20260503100132 51 229 1.0 1.0 0.00 0.00 0.00 99 1024.6
20260503081522 53 229 0.0 0.0 0.00 0.00 0.00 99 1024.7
20260503081019 53 229 0.0 0.0 0.00 0.00 0.00 99 1024.8
20260503080515 53 229 0.0 0.0 0.00 0.00 0.00 99 1024.9
20260503072449 53 229 0.0 0.0 0.00 0.00 0.00 99 1024.9
20260503071946 53 229 0.0 0.0 0.00 0.00 0.00 99 1024.9
20260503071443 53 229 0.0 0.0 0.00 0.00 0.00 99 1025.0
20260503070939 53 229 0.0 0.0 0.00 0.00 0.00 99 1024.9
20260503070436 53 229 0.0 0.0 0.00 0.00 0.00 99 1025.0